EW4120 Weather Reports


time (UTC)temp
F
wind
direction
speed
knots
gust
knots
rain 1hr
in
rain 24hr
in
rain mn
in
humidity
%
barometer
mb
20260902072517 71 0.0 0.0 0.01 0.08 0.01 98 1020.0
20260902071638 71 0.0 0.0 0.01 0.08 0.01 98 1020.0
20260902070537 71 0.0 0.0 0.01 0.08 0.01 98 1020.1
20260902065517 71 0.0 0.0 0.01 0.08 0.01 97 1020.1
20260902064517 71 0.0 0.0 0.01 0.08 0.01 97 1020.1
20260902063537 71 0.0 0.0 0.01 0.08 0.01 97 1020.1
20260902061517 71 0.0 0.0 0.00 0.07 0.00 97 1020.1
20260902060517 71 0.0 0.0 0.00 0.07 0.00 97 1020.1
20260902055517 72 0.0 0.0 0.00 0.07 0.00 97 1020.1
20260902054617 72 0.0 0.0 0.00 0.07 0.00 97 1020.1
20260902053557 72 0.0 0.0 0.00 0.07 0.00 97 1020.0
20260902052537 72 0.0 0.0 0.00 0.07 0.00 97 1020.0
20260902051557 72 0.0 0.0 0.00 0.07 0.00 97 1019.9
20260902050537 72 0.0 0.0 0.00 0.07 0.00 96 1019.9
20260902045537 72 0.0 0.0 0.00 0.07 0.00 96 1019.8
20260902044517 72 0.0 0.0 0.00 0.07 0.00 96 1019.7
20260902043557 73 0.0 0.0 0.00 0.07 0.00 96 1019.8
20260902042557 73 0.0 0.0 0.00 0.07 0.00 96 1019.7
20260902041537 73 0.0 0.0 0.00 0.07 0.00 96 1019.6
20260902040537 73 0.0 0.0 0.00 0.07 0.00 96 1019.7
20260902035617 73 0.0 0.0 0.01 0.07 0.07 95 1019.8
20260902034517 73 0.0 0.0 0.01 0.07 0.07 95 1019.8
20260902033517 73 0.0 0.0 0.01 0.07 0.07 95 1019.7
20260902032517 73 0.0 0.0 0.01 0.07 0.07 95 1019.6
20260902031517 74 0.0 0.0 0.01 0.07 0.07 94 1019.6
20260902030517 74 0.0 0.0 0.01 0.08 0.07 94 1019.6
20260902025557 74 0.0 0.0 0.00 0.07 0.06 94 1019.5
20260902024637 74 0.0 0.0 0.00 0.07 0.06 94 1019.6
20260902023517 74 0.0 0.0 0.00 0.07 0.06 93 1019.7
20260902022517 75 0.0 0.0 0.00 0.07 0.06 93 1019.6
20260902021557 75 0.0 0.9 0.00 0.07 0.06 93 1019.5
20260902020517 75 0.0 0.0 0.00 0.07 0.06 92 1019.3
20260902015557 75 0.0 0.0 0.00 0.07 0.06 92 1019.1
20260902014537 75 0.0 0.0 0.00 0.07 0.06 91 1018.9
20260902013537 76 0.0 0.0 0.00 0.07 0.06 91 1018.9
20260902012517 76 0.0 0.0 0.00 0.07 0.06 90 1018.7
20260902011517 76 0.0 0.0 0.00 0.07 0.06 89 1018.6
20260902010517 77 0.0 0.0 0.00 0.07 0.06 88 1018.7
20260902005517 77 0.0 0.0 0.00 0.07 0.06 87 1018.4
20260902004517 78 0.0 0.0 0.00 0.07 0.06 86 1018.4
20260902003537 78 0.0 0.0 0.01 0.07 0.06 85 1018.2
20260902002517 79 0.0 0.0 0.01 0.07 0.06 83 1018.2
20260902001537 80 0.0 0.0 0.01 0.07 0.06 81 1018.2
20260902000517 81 0.0 0.0 0.01 0.07 0.06 79 1018.3
20260901235537 82 0.0 0.0 0.02 0.07 0.06 77 1018.2
20260901234617 83 0.0 0.0 0.03 0.07 0.06 75 1018.4
20260901233537 85 0.0 0.0 0.02 0.06 0.05 72 1018.6
20260901232517 87 0.0 0.0 0.03 0.06 0.05 69 1018.6
20260901231517 89 0.0 0.0 0.03 0.06 0.05 67 1018.8
20260901230557 92 0.0 0.0 0.03 0.06 0.05 61 1018.9
20260901224617 95 0.0 0.9 0.02 0.04 0.03 51 1019.0
20260901223516 95 0 0.9 2.6 0.02 0.04 0.03 50 1018.9
20260901222516 95 45 0.9 2.6 0.01 0.03 0.02 49 1018.9
20260901221516 96 0.0 2.6 0.01 0.03 0.02 49 1018.8
20260901220516 96 23 0.9 2.6 0.01 0.03 0.02 49 1018.8
20260901215516 97 248 0.9 2.6 0.00 0.02 0.01 48 1018.7
20260901214516 97 23 0.9 3.5 0.00 0.02 0.01 49 1018.6
20260901213516 97 270 0.9 4.3 0.00 0.02 0.01 50 1018.8
20260901212516 96 23 0.9 2.6 0.00 0.02 0.01 48 1018.9
20260901211516 97 23 0.9 3.5 0.00 0.02 0.01 46 1019.0
20260901210556 97 23 0.9 2.6 0.00 0.02 0.01 47 1019.1
20260901205616 97 23 0.9 2.6 0.00 0.02 0.01 48 1019.0
20260901204516 97 45 0.9 4.3 0.00 0.02 0.01 47 1019.0
20260901203516 97 45 0.9 2.6 0.00 0.02 0.01 49 1019.1
20260901202556 97 23 0.9 4.3 0.00 0.02 0.01 48 1019.2
20260901201536 97 0.0 3.5 0.00 0.02 0.01 47 1019.2
20260901200516 95 0.0 2.6 0.00 0.02 0.01 50 1019.3
20260901195516 95 0.0 1.7 0.00 0.02 0.01 55 1019.4
20260901194556 94 23 1.7 4.3 0.00 0.02 0.01 51 1019.4
20260901193516 94 0.0 1.7 0.00 0.02 0.01 55 1019.5
20260901192516 94 45 0.9 4.3 0.00 0.02 0.01 50 1019.5
20260901191556 94 0.0 1.7 0.00 0.02 0.01 53 1019.6
20260901190516 94 45 1.7 4.3 0.00 0.02 0.01 51 1019.8
20260901185556 94 0.0 1.7 0.00 0.02 0.01 50 1019.9
20260901184556 94 45 0.9 1.7 0.00 0.02 0.01 53 1020.0
20260901183536 93 23 0.9 4.3 0.00 0.02 0.01 54 1020.0
20260901182536 93 0.0 1.7 0.00 0.02 0.01 54 1020.1
20260901181516 92 45 0.9 3.5 0.00 0.02 0.01 57 1020.2
20260901180536 92 0.0 2.6 0.00 0.02 0.01 58 1020.2
20260901175516 92 0 0.9 2.6 0.00 0.02 0.01 56 1020.2
20260901174516 93 0.0 1.7 0.00 0.02 0.01 58 1020.3
20260901173516 92 45 1.7 4.3 0.00 0.02 0.01 62 1020.5
20260901172536 91 293 0.9 2.6 0.00 0.02 0.01 62 1020.3
20260901171516 91 315 0.9 2.6 0.00 0.02 0.01 60 1020.4
20260901170657 91 45 0.9 4.3 0.00 0.02 0.01 62 1020.5
20260901165616 91 23 0.9 3.5 0.00 0.02 0.01 63 1020.6
20260901164516 90 45 0.9 4.3 0.00 0.02 0.01 61 1020.7
20260901163516 90 0.0 1.7 0.00 0.02 0.01 67 1020.8
20260901162516 90 45 0.9 3.5 0.00 0.03 0.01 65 1021.0
20260901161616 89 68 0.9 5.2 0.00 0.03 0.01 65 1021.1
20260901160516 89 0.0 2.6 0.00 0.04 0.01 67 1021.2
20260901155516 88 248 0.9 3.5 0.00 0.04 0.01 69 1021.3
20260901154556 88 0.0 1.7 0.00 0.04 0.01 71 1021.4
20260901153556 88 23 0.9 2.6 0.00 0.04 0.01 71 1021.5
20260901152656 87 0 0.9 3.5 0.01 0.04 0.01 71 1021.7
20260901151536 86 23 0.9 5.2 0.01 0.04 0.01 73 1021.8
20260901150516 86 0.0 2.6 0.01 0.04 0.01 75 1021.8
20260901145536 85 225 0.9 3.5 0.01 0.04 0.01 75 1021.8
20260901144516 85 0.0 2.6 0.01 0.04 0.01 77 1021.8
20260901143658 84 23 0.9 3.5 0.01 0.05 0.01 78 1021.8
20260901142516 83 0.0 0.9 0.00 0.04 0.00 80 1021.8
20260901141516 82 0.0 1.7 0.00 0.04 0.00 82 1021.7
20260901140515 82 0.0 0.0 0.00 0.04 0.00 88 1021.6
20260901135636 81 23 0.9 3.5 0.00 0.04 0.00 87 1021.6
20260901134616 80 0.0 0.9 0.00 0.04 0.00 89 1021.5
20260901133515 79 0.0 0.0 0.00 0.05 0.00 93 1021.5
20260901132515 78 0.0 1.7 0.00 0.05 0.00 93 1021.6
20260901131555 76 0.0 1.7 0.00 0.05 0.00 96 1021.5
20260901130515 75 0.0 0.9 0.00 0.05 0.00 100 1021.4
20260901125535 74 0.0 0.9 0.00 0.05 0.00 100 1021.3
20260901124535 73 0.0 0.9 0.00 0.05 0.00 100 1021.3
20260901123535 73 0.0 0.9 0.00 0.05 0.00 100 1021.3
20260901122556 72 0.0 0.0 0.00 0.05 0.00 100 1021.2
20260901121515 71 0.0 0.0 0.00 0.05 0.00 100 1021.1
20260901120515 70 0.0 0.0 0.00 0.05 0.00 100 1021.0
20260901115515 70 0.0 0.0 0.00 0.05 0.00 100 1021.1
20260901114515 69 0.0 0.0 0.00 0.05 0.00 99 1021.0
20260901113515 69 0.0 0.0 0.00 0.05 0.00 99 1020.9
20260901112535 69 0.0 0.0 0.00 0.05 0.00 99 1021.0
20260901111515 69 0.0 0.0 0.00 0.05 0.00 99 1020.8
20260901110515 69 0.0 0.0 0.00 0.05 0.00 99 1020.7
20260901105535 69 0.0 0.0 0.00 0.05 0.00 99 1020.6
20260901104555 69 0.0 0.0 0.00 0.05 0.00 99 1020.5
20260901103515 68 0.0 0.0 0.00 0.05 0.00 99 1020.5
20260901102515 68 0.0 0.0 0.00 0.05 0.00 99 1020.3
20260901101515 68 0.0 0.0 0.00 0.05 0.00 99 1020.3
20260901100535 69 0.0 0.0 0.00 0.05 0.00 99 1020.3
20260901095535 68 0.0 0.0 0.00 0.05 0.00 99 1020.3
20260901094535 68 0.0 0.0 0.00 0.06 0.00 99 1020.2
20260901093515 68 0.0 0.0 0.00 0.06 0.00 99 1020.2
20260901092517 69 0.0 0.0 0.00 0.06 0.00 99 1020.2
20260901091517 69 0.0 0.0 0.00 0.06 0.00 99 1020.0
20260901090617 69 0.0 0.0 0.00 0.06 0.00 99 1020.0
20260901085557 69 0.0 0.0 0.00 0.06 0.00 99 1020.1
20260901084617 69 0.0 0.0 0.00 0.06 0.00 99 1020.2
20260901083517 69 0.0 0.0 0.00 0.06 0.00 99 1020.4
20260901082517 69 0.0 0.0 0.00 0.06 0.00 99 1020.5
20260901081517 69 0.0 0.0 0.00 0.06 0.00 99 1020.4
20260901080517 70 0.0 0.0 0.00 0.06 0.00 99 1020.4
20260901075517 70 0.0 0.0 0.00 0.06 0.00 99 1020.6
20260901074517 70 0.0 0.0 0.00 0.06 0.00 99 1020.5
20260901073517 70 0.0 0.0 0.00 0.06 0.00 99 1020.5